Location: Baix
(44.7118°N, 4.7648°E)
Time: 18:59:21
(UTC+00:00)

Cosmos 2322 Rocket - Pass Details

Date: 01 December 2022
Orbit: 834 x 849 km, 71.0° (Epoch: 30 January)

Event Time Altitude Azimuth Distance (km) Brightness Sun altitude
Rises 17:44:48 0° 324° (NW) 3,390 5.6 -17.7°
Reaches altitude 10° 17:47:35 10° 312° (NW) 2,451 5.1 -18.2°
Maximum altitude 17:52:10 26° 257° (WSW) 1,571 4.4 -19.0°
Drops below altitude 10° 17:56:44 10° 202° (SSW) 2,437 5.0 -19.8°
Sets 17:59:30 0° 190° (S) 3,368 5.6 -20.3°
